STARLINK-1067, 44771

Orbit data source: Space-Track

STARLINK-1067, 44771 is a payload satellite owned by SpaceX/Seattle (US) in LEO that was launched on Mon, 11 Nov 2019 UTC via an FALCON 9 launch vehicle from the Air Force Eastern Test Range (AFETR). Payloads include a variety of satellites, spacecraft, and rockets equipped with specific instruments for various scientific and technological missions. These include communications satellites like Starlink; space stations such as the ISS; scientific satellites like the Hubble; Earth observation satellites from companies like Planet Labs, Umbra, and HawkEye 360; GPS; miniature CubeSats for education and research; and military/defense satellites.

Loading next visibility...
STARLINK-1067 details
Identifier
44771, 2019-074BL
Orbit
LEO
Last TLE update19 hours ago
Origin
Flag of USSpaceX/Seattle (US)
ManufacturerSpaceX/Seattle
MissionOperational Commercial Communications
Bus & MotorSTARLINK, Unknown motor
Mass260 kg wet, ~248 kg dry
Launch date (UTC)
2019-11-11 (5 years ago)
Launch vehicle
FALCON 9
Launch site
Air Force Eastern Test Range (AFETR)
Object type
Payload
Rocket body
Debris
Shape & HBRBox + 1 Pan, 8.86 m
Radar Cross Section13.562 m², Large (>1 m²)

Expand to show TLE details & history

TLE from 19 hours ago
0 STARLINK-1067
1 44771U 19074BL  24347.59131788  .00005043  00000-0  35720-3 0  9998
2 44771  53.0537  96.1655 0001452 102.4426 257.6725 15.06402264280050
Epoch: 2024-12-12T14:11Z
Definitive object data (Epoch: 2024-12-12T14:11:29.864Z)
Latitude-0.00008°
Longitude161.52156°
Altitude548.299 km
Speed7.589 km/s
True Right ascension06h 24m 39s
True Declination0° 00' 00"
Sunlit
Object was in full shadow at TLE epoch
Visualization TLE readout
Latitude51.60664°
Longitude-131.39689°
Altitude552.468 km
Speed7.592 km/s
Apparent Right ascension16h 09m 14s
Apparent Declination22° 10' 47"
Sunlit
Object is in daylight
Visualization observer readout
Local Sidereal Time08:08:28
Azimuth53.68° ENE
Elevation-6.6°
Doppler factor1
Orbital elements
Apogee altitude548.481 km
Perigee altitude546.47 km
Semi-major axis6,925.612 km
Eccentricity0.0001452
Inclination53.0537°
RAAN96.1655°
Arg. of periapsis102.4426°
True anomaly257.65625°
Mean anomaly257.6725°
Eccentric anomaly257.66437°
Mean motion3.76579 °/min
BSTAR0.0003572
Orbital period95.6 mins
Loading maneuver chart data...

STARLINK-1067 Visibility forecast

Observer location: undefined°, undefined

Span
Click to sort rows by Start time (UTC) header in descending order
Start Az.
Max El. time (UTC)
Max El. Az.
Max El.
End time (UTC)
End Az.
7 mins2024-12-13 11:06:40.321Z265.22° W2024-12-13 11:09:40.321Z320.237° NNW29.863°2024-12-13 11:13:40.321Z36.756° NE
5 mins2024-12-13 16:09:40.321Z335.76° NNW2024-12-13 16:11:40.321Z28.415° NE32.68°2024-12-13 16:14:40.321Z96.914° ESE
6 mins2024-12-13 17:48:40.321Z281.375° WNW2024-12-13 17:51:40.321Z214.704° SW26.141°2024-12-13 17:54:40.321Z167.804° S
6 mins2024-12-14 09:21:40.321Z200.883° SSW2024-12-14 09:23:40.321Z154.31° SSE36.413°2024-12-14 09:27:40.321Z61.057° ENE
|